Showing default

FLOCK 4BE 36, 60486

Orbit data source: Space-Track

FLOCK 4BE 36, 60486 is a payload satellite owned by Planet (US) in SSO that was launched on Fri, 16 Aug 2024 UTC via an FALCON 9 launch vehicle from the Air Force Western Test Range (AFWTR). Payload-class satellites include a variety of spacecraft equipped with specific instruments for various scientific and technological missions. These include communications satellites like Starlink; space stations such as the ISS; scientific satellites like the Hubble; Earth observation satellites from companies like Planet Labs, Umbra, and HawkEye 360; GPS; miniature CubeSats for education and research; and military/defense satellites.

Loading next visibility...
Identifier
60486, 2024-149U
Orbit
SSO
Country
Flag of USUS
Related business
Manufacturer
Planet
Mission
Operational Commercial Imaging
Bus & Motor
CUBESAT 3U, Unknown motor
Mass
5.7 kg wet, 5.7 kg dry
Launch date (UTC)
2024-08-16 (1 year ago)
Launch vehicle
FALCON 9
Launch site
Air Force Western Test Range (AFWTR)
Object type
Payload
Rocket body
Debris
Shape & HBR
Box + 2 Pan, 1.0 m
Radar Cross Section
0.072 m², Medium (>0.1 m² and < 1m²)

Expand to show TLE details & history
Last TLE update: 17 hours ago

TLE from 17 hours ago
0 FLOCK 4BE 36
1 60486U 24149U   25300.16587524  .00018333  00000-0  57525-3 0  9997
2 60486  97.3961  18.1408 0004544  34.0979 326.0554 15.33079717 66530
Epoch: 2025-10-27T03:58Z
TLE epoch observation values (Epoch: 2025-10-27T03:58:51.620Z)
Latitude
-0.00008°
Longitude
-77.3459°
Altitude
467.158 km
Speed
7.634 km/s
True Right ascension
01h 12m 33s
True Declination
0° 00' 00"
Sunlit
Object was in full shadow at epoch
Visualization orbit readout
Latitude
Unknown
Longitude
Unknown
Altitude
Unknown
Speed
Unknown
Apparent Right ascension
Unknown
Apparent Declination
Unknown
Sunlit
N/A
Visualization observer readout
Local Sidereal Time
16:36:17
Azimuth
Unknown
Elevation
Unknown
Doppler factor
Unknown
Orbital elements
Apogee altitude
466.687 km
Perigee altitude
460.469 km
Semi-major axis
6,841.715 km
Eccentricity
0.00045
Inclination
97.3961°
RAAN
18.1408°
Arg. of periapsis
34.0979°
True anomaly
326.02631°
Mean anomaly
326.0554°
Eccentric anomaly
326.04086°
Mean motion
3.83527 °/min
Orbital period
93.87 mins
BSTAR
0.00057525
Loading maneuver chart data...
Computing Atmospheric mass density...
Loading historical data...
Loading historical data...
Loading historical data...
Loading historical data...
Loading historical data...
Loading historical data...
Loading historical data...

Documentation

Showing up to 5 results
|